Terug naar catalogus

SHUTIANYUXING-03

ActiefWetenschapSSO
NORAD 67749·PAYLOAD·🇨🇳 China
Deze satellietnaam is nog niet bevestigd door officiële bronnen.

Gelanceerd Feb 12, 2026 vanaf South China Sea Launch Area

Loading…

Volgende Passages (komende 24 uur)

TLE

VersSource: Space-Track

Epoch: Sep 14, 2026, 19:06 UTC

1 67749U 26027D   26257.79647343  .00006996  00000-0  31818-3 0  9999
2 67749  97.5176  25.7398 0008343 271.3615  88.6664 15.21017343 32535

Volg SHUTIANYUXING-03 in realtime met AllMySat

Download on the App Store